Location: Cherry Springs State Park
(41.6616°N, 77.8240°W)
Time: 09:42:27
(UTC-04:00)

Daily predictions for brighter satellites

Satellite Brightness Start Highest point End
(mag) Time Altitude Azimuth Time Altitude Azimuth Time Altitude Azimuth
Lacrosse 4 Rocket 1.9 19:54:58 10° SW 19:58:59 63° WNW 20:03:02 10° NNE
H-2A R/B 3.4 19:55:59 10° SE 19:59:35 37° ENE 20:03:13 10° N
Helios 1A 4.4 19:58:17 10° ESE 20:01:19 20° ENE 20:04:23 10° NNE
Meteor 1-24 Rocket 3.7 19:57:48 10° N 20:03:17 67° E 20:08:56 10° SSE
Cosmos 1707 3.4 20:00:25 10° NNW 20:04:16 59° W 20:08:05 10° S
Cosmos 2082 Rocket 3.3 20:03:21 10° N 20:08:07 26° NE 20:12:40 11° ESE
Cosmos 405 4.3 20:05:00 10° SSW 20:08:23 45° WNW 20:11:48 10° N
Cosmos 2123 Rocket 4.1 20:02:11 10° N 20:08:27 58° E 20:14:36 10° SSE
Cosmos 1953 3.5 20:05:34 10° SE 20:08:45 22° E 20:11:57 10° NE
Cosmos 1867 4.5 20:10:12 10° SSE 20:14:41 27° ESE 20:19:12 10° NE
ALOS 2.3 20:10:28 10° SSE 20:15:08 89° W 20:19:50 10° NNW
USA 215 4.0 20:11:20 10° ENE 20:16:51 29° SE 20:22:20 10° S
Cosmos 1766 3.2 20:20:57 10° S 20:24:49 87° W 20:28:44 10° N
Spot 2 Rocket 3.5 20:20:16 10° SSE 20:25:20 72° ENE 20:30:27 10° N
Cosmos 1271 Rocket 4.3 20:25:41 16° E 20:26:14 17° E 20:28:51 10° NE
Lacrosse 5 rocket 3.2 20:26:00 10° NNW 20:28:44 17° NNE 20:30:54 12° ENE
CZ-4B DEB 4.0 20:31:09 21° E 20:31:50 23° ENE 20:34:22 10° NNE
Resurs 1-3 3.5 20:29:50 10° SSE 20:34:12 80° ENE 20:38:37 10° N
Spot 1 4.5 20:32:37 10° SSE 20:37:06 52° ENE 20:41:51 10° N
RESURS DK-1 3.1 20:36:21 10° NW 20:40:23 53° WSW 20:44:24 10° S
BREEZE-M DEB (TANK) 3.0 20:37:55 10° SW 20:40:43 83° SE 20:48:15 10° ENE
Envisat 3.5 20:40:01 17° SE 20:43:25 39° ENE 20:48:08 10° N
Cosmos 1674 3.2 20:42:41 10° N 20:46:13 36° ENE 20:47:22 29° ESE
Cosmos 1447 Rocket 4.4 20:40:57 10° N 20:47:04 65° E 20:53:09 10° SSE
Cosmos 1408 Rocket 3.9 20:43:44 10° N 20:48:02 44° ENE 20:50:27 23° SE
Lacrosse 5 2.4 20:44:34 10° WSW 20:49:35 60° NW 20:54:37 10° NE
Meteor 1-21 Rocket 4.3 20:44:15 10° N 20:50:02 64° ENE 20:55:52 10° SSE
Cosmos 1459 Rocket 4.4 20:45:07 10° SSE 20:50:53 40° E 20:56:35 10° NNE
Cosmos 1125 Rocket 3.4 20:45:57 10° S 20:51:04 64° ESE 20:56:14 10° NNE
Cosmos 2344 4.0 20:44:52 10° SW 20:52:29 68° NW 21:01:13 10° NNE
CZ-2D R/B 3.5 20:49:01 10° S 20:52:51 70° W 20:56:45 10° NNW
BREEZE-M DEB (TANK) 3.5 20:50:24 10° SSW 20:53:38 43° SE 21:03:05 10° ENE
Cosmos 1048 Rocket 4.0 20:49:39 10° NNW 20:54:44 60° ENE 20:57:43 24° SE
Cosmos 2173 Rocket 4.3 20:49:39 10° SSE 20:55:22 42° E 21:01:11 10° NNE
Geosat 3.9 20:52:01 10° NNE 20:57:04 90° NNE 21:02:06 10° SSW
Timation 1 Rocket 4.3 20:51:10 10° SSW 20:57:10 79° ESE 21:03:12 10° NNE
SAR-Lupe-4 3.5 20:55:34 18° SSE 20:58:09 87° WSW 21:01:46 10° NNW
Cosmos 1805 3.5 20:54:33 10° SSW 20:58:25 68° W 21:02:19 10° N
YAOGAN 6 4.3 20:59:41 20° NE 20:59:41 20° NE 21:01:47 10° NNE
Okean 3 Rocket 4.1 20:55:13 10° NNW 20:59:33 61° W 21:03:54 10° S
Tiangong 1 2.8 21:00:19 10° W 21:02:35 20° SSW 21:03:03 20° SSW
ERS-1 Rocket 3.7 21:03:25 31° E 21:04:26 34° ENE 21:08:58 10° N
Abrixas 2.3 21:04:16 10° WNW 21:06:57 77° W 21:06:57 77° W
SeaSat 1 4.4 21:07:09 10° SSW 21:11:16 26° WSW 21:15:24 10° NW
Cosmos 1470 2.7 21:12:27 47° SSE 21:13:22 63° E 21:17:18 10° NNE
USA 186 3.0 21:15:09 27° W 21:15:09 27° W 21:17:01 10° NW
Cosmos 1340 Rocket 2.9 21:13:13 10° N 21:17:07 55° ENE 21:17:07 55° ENE
Meteor 1-29 3.1 21:15:08 10° N 21:18:36 75° WNW 21:20:59 19° SSW
Cosmos 1833 Rocket 2.6 21:13:14 10° NNW 21:18:52 80° ENE 21:21:14 36° SSE
H-2A R/B (2) 4.0 21:17:56 10° SW 21:20:48 18° S 21:20:59 18° SSE
Cosmos 1076 Rocket 4.2 21:17:43 10° NNW 21:21:51 52° W 21:25:13 15° SSW
Cosmos 1818 3.9 21:16:55 10° NW 21:22:19 64° WSW 21:25:01 29° S
Cosmos 2278 Rocket 3.7 21:17:24 10° SW 21:22:39 38° WNW 21:27:57 10° N
COSMOS 2487 2.5 21:19:54 10° NNW 21:23:28 74° WSW 21:23:40 71° SW
GP-B 3.4 21:19:19 10° S 21:23:39 66° W 21:28:05 10° N
Meteor 1-4 Rocket 4.0 21:21:55 10° SW 21:25:10 36° WNW 21:28:25 10° N
Cosmos 2251 Rocket 4.2 21:21:32 10° N 21:26:26 36° ENE 21:26:29 36° ENE
Helios 1B rocket 3.2 21:22:37 10° N 21:26:39 53° WNW 21:30:39 10° SSW
Cosmos 2016 Rocket 4.0 21:24:19 33° SSE 21:26:51 54° E 21:32:50 10° NNE
Cosmos 1733 3.1 21:27:32 81° S 21:27:43 89° WSW 21:31:38 10° N
SJ-11-01 4.3 21:26:01 37° S 21:27:53 84° WSW 21:32:38 10° NNW
Resurs 01 Rocket 3.9 21:24:25 10° SSW 21:27:55 23° W 21:31:26 10° NW
Meteor 2-17 Rocket 4.5 21:25:50 37° SSE 21:28:01 54° E 21:33:59 10° NNE
CZ-3B DEB 3.8 21:21:49 10° WSW 21:30:37 39° NW 21:34:48 11° NNE
Cosmos 1269 Rocket 4.3 21:26:07 10° NNW 21:31:20 64° WSW 21:33:58 29° S
Cosmos 1766 Rocket 4.1 21:27:37 10° NNW 21:32:02 59° W 21:34:16 27° SSW
Cosmos 1725 Rocket 4.3 21:34:39 42° E 21:34:39 42° E 21:40:05 10° NNE
SWAS 4.4 21:32:06 10° SSW 21:36:23 81° WNW 21:40:43 10° NNE
Helios 1A 4.4 21:33:37 15° SSW 21:36:39 35° W 21:40:31 10° NNW
Cosmos 2297 4.2 21:31:32 10° SW 21:37:10 62° WNW 21:42:53 10° NNE
ATLAS 5 CENTAUR R/B 1.6 21:33:28 10° SSW 21:38:09 84° SE 21:43:15 10° NE
Cosmos 2100 Rocket 4.1 21:35:06 10° S 21:41:25 78° W 21:47:49 10° N
Meteor 1-11 4.4 21:38:55 10° N 21:44:04 52° ENE 21:44:04 52° ENE
Cosmos-2242 3.8 21:44:00 17° SSW 21:47:02 48° W 21:51:11 10° N
Cosmos 1939 Rocket 3.6 21:46:50 48° SW 21:47:20 51° W 21:51:24 10° NNW
SL-08 R/B 4.4 21:46:08 54° SE 21:47:25 67° E 21:53:46 10° NNE
Tsikada Rocket 4.1 21:43:20 10° N 21:49:15 52° ENE 21:49:15 52° ENE
Cosmos 2082 Rocket 2.9 21:46:59 10° NW 21:52:27 49° WSW 21:54:34 33° SSW
Meteor 1-16 Rocket 4.1 21:58:15 76° SSE 21:58:43 83° E 22:04:40 10° NNE
USA 215 3.3 21:53:41 10° NE 22:00:15 79° NW 22:06:46 10° SW
Cosmos 1802 Rocket 4.2 21:56:20 15° SSW 22:01:24 69° W 22:07:34 10° N
Cosmos 1271 Rocket 4.4 22:00:43 27° WSW 22:01:58 34° WNW 22:05:41 10° N
Cosmos 1743 Rocket 4.2 21:59:21 10° NNW 22:03:13 53° WNW 22:03:13 53° WNW
Lacrosse 5 rocket 3.0 22:04:35 10° NW 22:06:37 29° NW 22:06:37 29° NW
ARGOS 3.7 22:10:26 50° NNE 22:10:26 50° NNE 22:14:32 10° N
MetOp-A 4.2 22:11:07 71° NNW 22:11:07 71° NNW 22:15:54 10° NNW
Cosmos 494 Rocket 4.5 22:12:35 10° NNW 22:16:35 55° NNW 22:16:35 55° NNW
H-2A R/B 3.3 22:24:04 33° NNE 22:24:04 33° NNE 22:27:08 10° N
USA 267 3.4 22:32:47 63° NNE 22:32:47 63° NNE 22:39:00 10° NW
Lacrosse 5 4.3 22:29:52 10° WNW 22:33:29 19° NNW 22:36:05 14° NNE
SPOT 5 3.9 22:35:43 48° NW 22:35:43 48° NW 22:39:42 10° NNW
Terra 4.2 23:00:29 17° N 23:00:29 17° N 23:01:37 10° N
ATLAS 5 CENTAUR R/B 4.4 23:20:11 10° WNW 23:23:35 18° NW 23:27:12 10° N
